TimeCST,TemperatureF,Dew PointF,Humidity,Sea Level PressureIn,VisibilityMPH,Wind Direction,Wind SpeedMPH,Gust SpeedMPH,PrecipitationIn,Events,Conditions,WindDirDegrees,DateUTC
12:15 AM,78.8,71.6,78,30.03,10.0,SE,12.7,-,N/A,,Clear,140,2012-11-04 05:15:00
12:35 AM,78.8,71.6,78,30.03,10.0,SSE,11.5,-,N/A,,Clear,150,2012-11-04 05:35:00
12:55 AM,78.8,71.6,78,30.03,10.0,SSE,9.2,-,N/A,,Clear,150,2012-11-04 05:55:00
1:15 AM,78.8,71.6,78,30.02,10.0,SSE,8.1,-,N/A,,Clear,160,2012-11-04 06:15:00
1:35 AM,78.8,71.6,78,30.03,10.0,Calm,Calm,-,N/A,,Scattered Clouds,0,2012-11-04 06:35:00
1:55 AM,75.2,68.0,78,30.02,9.0,NNE,10.4,-,N/A,,Mostly Cloudy,30,2012-11-04 06:55:00
1:15 AM,75.2,68.0,78,30.03,8.0,NE,11.5,-,N/A,,Mostly Cloudy,40,2012-11-04 07:15:00
1:35 AM,75.2,68.0,78,30.03,9.0,NE,17.3,-,N/A,,Mostly Cloudy,40,2012-11-04 07:35:00
1:55 AM,75.2,68.0,78,30.03,10.0,NE,15.0,-,N/A,,Mostly Cloudy,40,2012-11-04 07:55:00
2:15 AM,75.2,68.0,78,30.02,10.0,NE,11.5,-,N/A,,Mostly Cloudy,40,2012-11-04 08:15:00
2:35 AM,75.2,68.0,78,30.02,10.0,NE,8.1,-,N/A,,Overcast,50,2012-11-04 08:35:00
2:55 AM,75.2,69.8,83,30.01,9.0,East,9.2,-,N/A,,Overcast,100,2012-11-04 08:55:00
3:15 AM,75.2,69.8,83,30.00,10.0,East,11.5,-,N/A,,Mostly Cloudy,100,2012-11-04 09:15:00
3:35 AM,75.2,69.8,83,30.00,10.0,East,9.2,-,N/A,,Clear,90,2012-11-04 09:35:00
3:55 AM,75.2,69.8,83,30.00,10.0,ESE,10.4,-,N/A,,Clear,110,2012-11-04 09:55:00
4:15 AM,75.2,69.8,83,30.00,10.0,ESE,10.4,-,N/A,,Clear,110,2012-11-04 10:15:00
4:35 AM,77.0,68.0,74,30.00,10.0,ESE,10.4,-,N/A,,Clear,110,2012-11-04 10:35:00
4:55 AM,77.0,69.8,78,30.01,10.0,East,9.2,-,N/A,,Clear,100,2012-11-04 10:55:00
5:15 AM,77.0,69.8,78,30.02,10.0,East,9.2,-,N/A,,Scattered Clouds,80,2012-11-04 11:15:00
5:35 AM,77.0,69.8,78,30.03,10.0,ENE,10.4,-,N/A,,Scattered Clouds,70,2012-11-04 11:35:00
5:55 AM,77.0,69.8,78,30.04,10.0,ENE,9.2,-,N/A,,Mostly Cloudy,60,2012-11-04 11:55:00
6:15 AM,77.0,69.8,78,30.05,10.0,East,8.1,-,N/A,,Mostly Cloudy,90,2012-11-04 12:15:00
6:35 AM,78.8,69.8,74,30.05,10.0,ENE,9.2,-,N/A,,Clear,70,2012-11-04 12:35:00
6:55 AM,78.8,69.8,74,30.06,10.0,East,9.2,-,N/A,,Clear,80,2012-11-04 12:55:00
7:15 AM,78.8,69.8,74,30.06,10.0,East,11.5,-,N/A,,Clear,80,2012-11-04 13:15:00
7:35 AM,78.8,69.8,74,30.06,10.0,ENE,11.5,-,N/A,,Clear,60,2012-11-04 13:35:00
7:55 AM,77.0,69.8,78,30.07,10.0,ENE,9.2,-,N/A,,Clear,70,2012-11-04 13:55:00
8:15 AM,78.8,69.8,74,30.07,10.0,East,9.2,-,N/A,,Clear,90,2012-11-04 14:15:00
8:35 AM,78.8,69.8,74,30.07,10.0,East,8.1,-,N/A,,Clear,100,2012-11-04 14:35:00
8:55 AM,78.8,69.8,74,30.07,10.0,ESE,8.1,-,N/A,,Clear,110,2012-11-04 14:55:00
9:15 AM,78.8,69.8,74,30.08,10.0,East,6.9,-,N/A,,Clear,90,2012-11-04 15:15:00
9:35 AM,78.8,69.8,74,30.09,10.0,East,5.8,-,N/A,,Clear,90,2012-11-04 15:35:00
9:55 AM,78.8,69.8,74,30.09,10.0,East,5.8,-,N/A,,Clear,80,2012-11-04 15:55:00
10:15 AM,78.8,69.8,74,30.08,10.0,NE,8.1,-,N/A,,Unknown,50,2012-11-04 16:15:00
10:35 AM,78.8,69.8,74,30.08,10.0,NE,9.2,-,N/A,,Scattered Clouds,50,2012-11-04 16:35:00
10:55 AM,75.2,68.0,78,30.08,8.0,NNE,9.2,19.6,N/A,,Mostly Cloudy,20,2012-11-04 16:55:00
11:15 AM,73.4,68.0,83,30.08,6.0,NNE,9.2,15.0,N/A,,Haze,20,2012-11-04 17:15:00
11:35 AM,75.2,68.0,78,30.07,8.0,NE,11.5,-,N/A,,Scattered Clouds,40,2012-11-04 17:35:00
11:55 AM,75.2,69.8,83,30.06,10.0,NE,9.2,-,N/A,,Clear,40,2012-11-04 17:55:00
12:15 PM,75.2,68.0,78,30.05,10.0,NE,10.4,-,N/A,,Clear,40,2012-11-04 18:15:00
12:35 PM,75.2,68.0,78,30.05,10.0,NE,11.5,-,N/A,,Clear,40,2012-11-04 18:35:00
12:55 PM,75.2,68.0,78,30.04,10.0,NE,12.7,-,N/A,,Clear,40,2012-11-04 18:55:00
1:15 PM,75.2,68.0,78,30.04,-9999.0,NE,12.7,-,N/A,,Clear,40,2012-11-04 19:15:00
1:35 PM,75.2,68.0,78,30.03,10.0,NE,12.7,-,N/A,,Clear,50,2012-11-04 19:35:00
1:55 PM,75.2,68.0,78,30.02,10.0,NE,11.5,-,N/A,,Clear,50,2012-11-04 19:55:00
2:15 PM,77.0,68.0,74,30.02,10.0,NE,13.8,-,N/A,,Partly Cloudy,50,2012-11-04 20:15:00
2:35 PM,77.0,68.0,74,30.01,10.0,NE,12.7,-,N/A,,Partly Cloudy,50,2012-11-04 20:35:00
2:55 PM,77.0,68.0,74,30.02,10.0,NE,10.4,-,N/A,,Clear,50,2012-11-04 20:55:00
3:15 PM,77.0,68.0,74,30.00,10.0,NE,10.4,-,N/A,,Clear,50,2012-11-04 21:15:00
3:35 PM,77.0,68.0,74,30.00,10.0,NE,12.7,-,N/A,,Clear,50,2012-11-04 21:35:00
3:55 PM,77.0,68.0,74,30.00,10.0,ENE,10.4,-,N/A,,Clear,70,2012-11-04 21:55:00
4:15 PM,77.0,68.0,74,30.01,10.0,ENE,9.2,-,N/A,,Clear,60,2012-11-04 22:15:00
4:35 PM,77.0,68.0,74,30.03,10.0,NE,10.4,-,N/A,,Scattered Clouds,50,2012-11-04 22:35:00
4:55 PM,78.8,68.0,69,30.03,10.0,NE,10.4,-,N/A,,Mostly Cloudy,40,2012-11-04 22:55:00
5:15 PM,78.8,69.8,74,30.03,10.0,NE,11.5,-,N/A,,Partly Cloudy,50,2012-11-04 23:15:00
5:35 PM,77.0,69.8,78,30.04,10.0,NE,12.7,-,N/A,,Clear,40,2012-11-04 23:35:00
5:55 PM,77.0,68.0,74,30.04,10.0,ENE,10.4,-,N/A,,Clear,60,2012-11-04 23:55:00
6:15 PM,77.0,68.0,74,30.04,10.0,ENE,10.4,-,N/A,,Clear,60,2012-11-05 00:15:00
6:55 PM,78.8,68.0,69,30.06,10.0,ENE,9.2,-,N/A,,Clear,60,2012-11-05 00:55:00
7:15 PM,78.8,68.0,69,30.06,10.0,ENE,6.9,-,N/A,,Clear,70,2012-11-05 01:15:00
7:35 PM,78.8,68.0,69,30.06,10.0,ENE,6.9,-,N/A,,Clear,70,2012-11-05 01:35:00
7:55 PM,78.8,68.0,69,30.06,10.0,ENE,8.1,-,N/A,,Clear,60,2012-11-05 01:55:00
8:15 PM,78.8,68.0,69,30.06,10.0,East,6.9,-,N/A,,Clear,90,2012-11-05 02:15:00
8:35 PM,78.8,68.0,69,30.06,10.0,East,8.1,-,N/A,,Clear,100,2012-11-05 02:35:00
8:55 PM,78.8,68.0,69,30.07,10.0,East,6.9,-,N/A,,Clear,100,2012-11-05 02:55:00
9:15 PM,78.8,68.0,69,30.07,-9999.0,East,6.9,-,N/A,,Clear,100,2012-11-05 03:15:00
9:35 PM,78.8,68.0,69,30.07,10.0,ESE,8.1,-,N/A,,Clear,110,2012-11-05 03:35:00
9:55 PM,78.8,68.0,69,30.07,10.0,ESE,6.9,-,N/A,,Clear,120,2012-11-05 03:55:00
10:15 PM,78.8,68.0,69,30.07,10.0,ESE,6.9,-,N/A,,Clear,120,2012-11-05 04:15:00
10:35 PM,78.8,68.0,69,30.07,10.0,ESE,8.1,-,N/A,,Clear,110,2012-11-05 04:35:00
10:55 PM,78.8,68.0,69,30.07,10.0,East,5.8,-,N/A,,Clear,90,2012-11-05 04:55:00